Startseite
Über Mich
AHP4
Galerie
Sehschlangen
Tourenbuch
Bookmarks
Elektronik
Bewertung
Geschichten
[Tagesmessung] [Jahreswerte] [Information]

Messwerte vom 29.11.2021

Die letzten Messwerte von 23:58:47 Uhr:
KategorieMesswert
Temperatur [°C]1
Luftdruck [mBar]991
Sonneneinstrahlung0
Wind [km/h]3 aus Südwest
Niederschlag [l/m²]0
rel.Luftfeucht.96.6%
CO2 [ppm]694

Diagramme
Messwerte vom 29.11.2021
Tagesaggregation
KategorieMinimumMaximumSchnittSumme
Temperatur [°C]132.2896
Luftdruck [mBar]982993987.6438
Sonneneinstrahlung20151.6042
Wind [km/h]13
rF [%]96.696.696.6
Niederschlag [l/m²]0
CO2 [ppm]404846730.1
Einordnung alsKalter Tag

Messungen an benachbarten Tagen: Zur Jahresaggregation 2021
Tabelle aller Messwerte
UhrzeitTemperatur [°C]Luftdruck [mBar]SonneWind [km/h]RichtungRegen [l/m²]rF [%]CO2 [ppm]
00:01:45 2 982 0 1 W 0 96.6 747
00:04:47 2 982 0 0 W 0 96.6 750
00:07:47 2 983 0 2 W 0 96.6 751
00:10:46 2 983 0 0 SW 0 96.6 747
00:13:47 2 983 0 0 SW 0 96.6 738
00:16:47 2 983 0 1 O 0 96.6 737
00:19:47 2 983 0 0 S 0 96.6 751
00:22:46 2 983 0 0 N 0 96.6 749
00:25:47 2 983 0 0 N 0 96.6 746
00:28:46 2 983 0 0 O 0 96.6 743
00:31:47 2 983 0 0 SO 0 96.6 740
00:34:47 2 982 0 2 W 0 96.6 735
00:37:46 2 983 0 0 W 0 96.6 737
00:40:45 2 982 0 1 W 0 96.6 746
00:43:45 2 983 0 2 W 0 96.6 743
00:46:48 2 983 0 0 W 0 96.6 735
00:49:49 2 983 0 0 W 0 96.6 730
00:52:46 2 984 0 0 W 0 96.6 737
00:55:44 2 983 0 0 O 0 96.6 743
00:58:47 2 983 0 0 W 0 96.6 742
01:01:45 2 983 0 0 W 0 96.6 740
01:04:46 2 983 0 0 W 0 96.6 737
01:07:46 2 984 0 0 W 0 96.6 734
01:10:46 2 983 0 0 S 0 96.6 737
01:13:44 2 983 0 0 S 0 96.6 737
01:16:44 2 983 0 0 S 0 96.6 737
01:19:46 2 982 0 0 SO 0 96.6 737
01:22:48 2 983 0 0 NO 0 96.6 735
01:25:45 2 982 0 1 O 0 96.6 728
01:28:45 2 984 0 0 SO 0 96.6 734
01:31:45 2 983 0 0 S 0 96.6 729
01:34:45 2 983 0 0 S 0 96.6 726
01:37:46 2 983 0 0 NO 0 96.6 729
01:40:47 2 983 0 4 W 0 96.6 734
01:43:47 2 983 0 2 S 0 96.6 729
01:46:47 2 984 0 1 W 0 96.6 738
01:49:47 2 983 0 1 SW 0 96.6 740
01:52:45 2 983 0 1 SW 0 96.6 747
01:55:47 2 982 0 0 SW 0 96.6 746
01:58:46 2 983 0 3 SW 0 96.6 744
02:01:47 2 983 0 0 S 0 96.6 738
02:04:47 2 983 0 1 W 0 96.6 739
02:07:47 2 983 0 0 S 0 96.6 743
02:10:48 2 983 0 0 O 0 96.6 740
02:13:49 2 983 0 0 SO 0 96.6 736
02:16:45 2 983 0 0 S 0 96.6 732
02:19:46 2 983 0 0 S 0 96.6 736
02:22:46 2 983 0 1 SO 0 96.6 739
02:25:46 2 983 0 1 S 0 96.6 744
02:28:46 2 984 0 2 SO 0 96.6 739
02:31:46 2 983 0 2 SO 0 96.6 740
02:34:46 2 984 0 5 S 0 96.6 738
02:37:45 2 984 0 1 S 0 96.6 743
02:40:50 2 983 0 1 SW 0 96.6 746
02:43:46 2 983 0 1 S 0 96.6 744
02:46:46 2 984 0 0 SO 0 96.6 738
02:49:47 2 983 0 0 SO 0 96.6 739
02:52:46 2 983 0 0 S 0 96.6 743
02:55:47 2 983 0 2 SW 0 96.6 766
02:58:47 2 984 0 0 SW 0 96.6 747
03:01:48 2 983 0 1 SW 0 96.6 752
03:04:47 2 983 0 2 W 0 96.6 747
03:07:47 2 984 0 0 S 0 96.6 749
03:10:44 2 984 0 0 S 0 96.6 747
03:13:50 2 983 0 0 SO 0 96.6 751
03:16:47 2 984 0 0 NO 0 96.6 750
03:19:45 2 983 0 0 O 0 96.6 750
03:22:46 2 983 0 1 S 0 96.6 750
03:25:45 2 984 0 1 S 0 96.6 746
03:28:47 2 984 0 0 SO 0 96.6 747
03:31:45 2 983 0 0 W 0 96.6 749
03:34:46 2 983 0 0 S 0 96.6 752
03:37:47 2 983 0 0 SO 0 96.6 746
03:40:46 2 983 0 0 W 0 96.6 749
03:43:48 2 984 0 0 SW 0 96.6 750
03:46:45 2 984 0 0 S 0 96.6 752
03:49:47 2 984 0 0 S 0 96.6 749
03:52:46 2 984 0 1 S 0 96.6 749
03:55:47 2 983 0 0 SW 0 96.6 753
03:58:45 2 983 0 0 SW 0 96.6 755
04:01:47 2 983 0 2 W 0 96.6 753
04:04:45 2 983 0 1 W 0 96.6 749
04:07:46 2 984 0 2 W 0 96.6 743
04:10:44 2 984 0 0 W 0 96.6 754
04:13:47 2 984 0 2 SW 0 96.6 743
04:16:44 2 984 0 1 W 0 96.6 741
04:19:46 2 984 0 0 NW 0 96.6 740
04:22:45 2 984 0 1 SW 0 96.6 746
04:25:46 2 984 0 3 SW 0 96.6 746
04:28:47 2 984 0 0 W 0 96.6 746
04:31:47 2 983 0 0 SO 0 96.6 746
04:34:48 2 984 0 0 SW 0 96.6 746
04:37:45 2 984 0 0 S 0 96.6 744
04:40:47 2 984 0 0 SW 0 96.6 744
04:43:46 2 984 0 0 SW 0 96.6 744
04:46:46 2 983 0 2 W 0 96.6 743
04:49:48 2 984 0 0 NW 0 96.6 748
04:52:46 2 984 0 2 W 0 96.6 746
04:55:47 2 984 0 1 SW 0 96.6 743
04:58:46 2 984 0 1 NW 0 96.6 746
05:01:46 2 984 0 0 NW 0 96.6 746
05:04:47 2 984 0 2 NW 0 96.6 746
05:07:47 2 984 0 2 SW 0 96.6 749
05:10:45 2 984 0 0 SW 0 96.6 743
05:13:47 2 984 0 1 NW 0 96.6 746
05:16:46 2 984 0 0 SW 0 96.6 744
05:19:45 2 984 0 0 SO 0 96.6 749
05:22:44 2 984 0 0 S 0 96.6 746
05:25:46 2 984 0 1 S 0 96.6 752
05:28:45 2 984 0 0 SW 0 96.6 752
05:31:45 2 984 0 0 O 0 96.6 747
05:34:44 2 984 0 1 W 0 96.6 746
05:37:45 2 984 0 0 S 0 96.6 748
05:40:48 2 984 0 0 SW 0 96.6 751
05:43:46 2 984 0 0 SW 0 96.6 749
05:46:46 2 984 0 0 SW 0 96.6 756
05:49:46 2 984 0 1 SW 0 96.6 750
05:52:44 2 984 0 0 S 0 96.6 753
05:55:48 2 984 0 0 S 0 96.6 748
05:58:44 2 984 0 0 S 0 96.6 755
06:01:48 2 984 0 2 S 0 96.6 755
06:04:45 2 984 0 0 W 0 96.6 758
06:07:46 2 984 0 0 O 0 96.6 766
06:10:46 2 984 0 0 SO 0 96.6 761
06:13:47 2 984 0 1 S 0 96.6 756
06:16:46 2 984 0 0 SW 0 96.6 753
06:19:44 2 984 0 1 S 0 96.6 756
06:22:46 2 984 0 0 S 0 96.6 756
06:25:46 2 984 0 0 O 0 96.6 758
06:28:45 2 984 0 0 S 0 96.6 755
06:31:46 2 984 0 0 SO 0 96.6 760
06:34:49 2 984 0 0 SW 0 96.6 759
06:37:51 2 984 0 3 NW 0 96.6 749
06:40:45 2 984 0 1 S 0 96.6 746
06:43:46 2 984 0 2 NW 0 96.6 747
06:46:45 2 984 0 0 W 0 96.6 750
06:49:47 2 984 0 0 SW 0 96.6 747
06:52:47 2 984 0 0 SW 0 96.6 743
06:55:46 2 985 0 1 W 0 96.6 745
06:58:45 2 985 0 0 W 0 96.6 746
07:01:44 2 985 0 0 W 0 96.6 737
07:04:46 2 985 0 1 NW 0 96.6 737
07:07:48 2 985 0 0 NW 0 96.6 734
07:10:45 2 985 0 0 W 0 96.6 615
07:13:46 2 985 0 2 W 0 96.6 404
07:16:46 2 985 0 0 W 0 96.6 404
07:19:48 2 985 0 0 SW 0 96.6 472
07:22:47 2 985 0 2 NW 0 96.6 483
07:25:46 2 985 0 1 NW 0 96.6 511
07:28:46 2 985 0 2 NW 0 96.6 503
07:31:46 2 985 0 1 SW 0 96.6 497
07:34:45 2 985 0 1 W 0 96.6 485
07:37:46 2 985 4 2 NW 0 96.6 480
07:40:45 2 985 6 2 W 0 96.6 517
07:43:46 2 985 9 1 W 0 96.6 509
07:46:45 2 985 14 2 SW 0 96.6 514
07:49:47 2 986 22 1 W 0 96.6 521
07:52:47 2 985 27 1 SW 0 96.6 527
07:55:47 2 986 31 1 W 0 96.6 536
07:58:45 2 986 37 2 S 0 96.6 538
08:01:47 2 987 45 2 SW 0 96.6 538
08:04:48 2 986 47 2 SW 0 96.6 542
08:07:46 2 986 54 2 W 0 96.6 538
08:10:45 2 986 61 1 W 0 96.6 547
08:13:47 2 986 67 2 SW 0 96.6 550
08:16:48 2 986 78 4 W 0 96.6 556
08:19:48 2 986 84 0 SW 0 96.6 565
08:22:48 2 985 90 1 SW 0 96.6 572
08:25:47 2 985 100 2 S 0 96.6 579
08:28:48 2 986 107 2 SW 0 96.6 583
08:31:47 2 986 112 3 W 0 96.6 585
08:34:50 2 986 114 5 NW 0 96.6 591
08:37:48 2 986 108 6 NW 0 96.6 597
08:40:46 2 987 125 4 W 0 96.6 602
08:43:51 2 986 132 1 NW 0 96.6 605
08:46:48 2 987 122 3 W 0 96.6 611
08:49:45 2 987 141 6 W 0 96.6 618
08:52:46 2 987 131 6 W 0 96.6 626
08:55:48 2 987 142 0 NW 0 96.6 626
08:58:49 2 987 145 1 NW 0 96.6 556
09:01:50 2 987 150 2 NW 0 96.6 501
09:04:49 2 987 153 1 NW 0 96.6 474
09:07:48 2 987 155 0 NW 0 96.6 497
09:10:51 2 987 156 1 SW 0 96.6 506
09:13:49 2 987 133 2 SW 0 96.6 524
09:16:51 2 987 145 2 SW 0 96.6 527
09:19:46 2 987 137 4 W 0 96.6 526
09:22:49 2 987 129 4 W 0 96.6 568
09:25:47 2 987 125 2 S 0 96.6 565
09:28:48 2 987 143 2 S 0 96.6 567
09:31:49 2 987 153 4 W 0 96.6 577
09:34:49 2 987 156 2 NW 0 96.6 574
09:37:48 2 987 159 3 W 0 96.6 577
09:40:49 2 987 151 2 SW 0 96.6 576
09:43:49 2 987 162 3 SW 0 96.6 582
09:46:48 2 987 168 4 SW 0 96.6 585
09:49:48 2 987 163 1 SW 0 96.6 597
09:52:49 2 987 169 5 NW 0 96.6 600
09:55:47 2 987 161 2 NW 0 96.6 612
09:58:48 2 987 165 2 SW 0 96.6 618
10:01:48 2 987 169 6 SW 0 96.6 620
10:04:49 2 987 173 2 SW 0 96.6 618
10:07:49 3 988 172 2 SW 0 96.6 630
10:10:50 3 987 178 5 W 0 96.6 632
10:13:48 3 987 178 3 NW 0 96.6 638
10:16:48 3 987 180 5 SW 0 96.6 640
10:19:50 3 987 181 3 NW 0 96.6 641
10:22:47 3 987 181 2 W 0 96.6 641
10:25:47 3 987 182 4 W 0 96.6 653
10:28:48 3 987 178 5 NW 0 96.6 647
10:31:47 3 987 186 9 W 0 96.6 650
10:34:47 3 987 178 11 NW 0 96.6 653
10:37:47 3 987 182 4 O 0 96.6 661
10:40:46 3 987 183 2 W 0 96.6 656
10:43:47 3 987 177 5 NW 0 96.6 658
10:46:48 3 987 181 0 NW 0 96.6 664
10:49:48 3 988 188 6 W 0 96.6 661
10:52:47 3 987 190 10 W 0 96.6 662
10:55:46 3 987 196 8 N 0 96.6 664
10:58:47 3 987 196 8 NW 0 96.6 669
11:01:48 3 988 196 6 W 0 96.6 667
11:04:46 3 987 201 4 W 0 96.6 655
11:07:47 3 987 200 3 W 0 96.6 661
11:10:46 3 988 197 5 W 0 96.6 671
11:13:47 3 988 196 1 W 0 96.6 694
11:16:47 3 987 194 1 W 0 96.6 688
11:19:49 3 987 193 7 W 0 96.6 690
11:22:46 3 987 193 4 W 0 96.6 689
11:25:48 3 988 190 3 W 0 96.6 685
11:28:47 3 988 190 1 NW 0 96.6 688
11:31:47 3 987 190 4 NW 0 96.6 691
11:34:49 3 987 192 8 W 0 96.6 689
11:37:47 3 988 194 3 SO 0 96.6 682
11:40:47 3 988 194 4 W 0 96.6 688
11:43:46 3 987 194 6 W 0 96.6 700
11:46:47 3 987 191 3 SW 0 96.6 702
11:49:45 3 987 193 3 S 0 96.6 701
11:52:47 3 987 191 5 SW 0 96.6 703
11:55:46 3 988 192 5 S 0 96.6 709
11:58:47 3 987 193 1 NW 0 96.6 715
12:01:48 3 987 187 3 SW 0 96.6 708
12:04:46 3 988 180 2 S 0 96.6 710
12:07:49 3 987 178 5 W 0 96.6 705
12:10:47 3 988 171 2 W 0 96.6 710
12:13:48 3 987 167 4 NW 0 96.6 703
12:16:47 3 988 167 2 W 0 96.6 710
12:19:48 3 988 170 2 W 0 96.6 713
12:22:47 3 988 180 3 W 0 96.6 721
12:25:49 3 987 182 8 SO 0 96.6 720
12:28:46 3 988 191 3 S 0 96.6 733
12:31:49 3 988 188 5 SW 0 96.6 731
12:34:46 3 988 195 6 N 0 96.6 734
12:37:49 3 988 195 3 SW 0 96.6 738
12:40:49 3 988 195 6 SW 0 96.6 738
12:43:48 3 988 192 4 SW 0 96.6 743
12:46:47 3 987 192 2 W 0 96.6 734
12:49:49 3 987 184 2 SW 0 96.6 730
12:52:46 3 988 179 2 S 0 96.6 731
12:55:47 3 988 175 7 SW 0 96.6 747
12:58:50 3 987 178 8 W 0 96.6 752
13:01:46 3 988 176 6 W 0 96.6 751
13:04:47 3 988 184 2 SW 0 96.6 747
13:07:49 3 988 177 6 NW 0 96.6 755
13:10:48 3 988 171 4 NW 0 96.6 752
13:13:47 3 988 174 7 W 0 96.6 752
13:16:49 3 988 159 3 NW 0 96.6 758
13:19:47 3 988 153 3 W 0 96.6 762
13:22:47 3 988 169 2 S 0 96.6 756
13:25:50 3 988 151 4 W 0 96.6 759
13:28:47 3 987 151 3 NO 0 96.6 763
13:31:48 3 988 161 4 W 0 96.6 771
13:34:49 3 988 163 1 SO 0 96.6 773
13:37:46 3 988 171 4 SW 0 96.6 777
13:40:48 3 988 173 4 W 0 96.6 775
13:43:46 3 988 172 3 W 0 96.6 773
13:46:48 3 988 170 4 NW 0 96.6 774
13:49:48 3 988 167 13 S 0 96.6 776
13:52:47 3 989 166 10 SW 0 96.6 763
13:55:47 3 988 165 0 S 0 96.6 773
13:58:47 3 988 166 4 SW 0 96.6 772
14:01:46 3 988 169 3 SW 0 96.6 772
14:04:48 3 988 161 6 W 0 96.6 772
14:07:47 3 988 162 1 W 0 96.6 778
14:10:46 3 988 157 8 W 0 96.6 782
14:13:47 3 988 157 3 W 0 96.6 779
14:16:48 3 988 162 6 NW 0 96.6 782
14:19:48 3 988 142 8 W 0 96.6 788
14:22:49 3 989 150 5 W 0 96.6 795
14:25:49 3 989 152 5 SW 0 96.6 797
14:28:50 3 988 144 4 NW 0 96.6 791
14:31:48 3 988 149 2 NO 0 96.6 787
14:34:47 3 988 133 8 W 0 96.6 790
14:37:50 3 989 123 3 W 0 96.6 796
14:40:48 3 989 118 11 SW 0 96.6 784
14:43:49 3 989 118 8 W 0 96.6 785
14:46:47 3 989 108 7 NW 0 96.6 787
14:49:47 3 989 111 5 W 0 96.6 795
14:52:47 3 989 103 10 W 0 96.6 793
14:55:46 3 989 97 6 W 0 96.6 794
14:58:47 3 989 101 3 W 0 96.6 808
15:01:48 3 989 94 9 SW 0 96.6 807
15:04:49 3 990 88 5 NW 0 96.6 816
15:07:47 3 990 94 5 NW 0 96.6 806
15:10:50 3 989 106 10 NW 0 96.6 803
15:13:48 3 989 115 7 W 0 96.6 803
15:16:52 3 990 121 6 NW 0 96.6 803
15:19:46 3 990 121 10 NW 0 96.6 793
15:22:46 3 990 118 7 SW 0 96.6 791
15:25:49 3 990 116 4 NW 0 96.6 788
15:28:46 3 989 119 3 0 96.6 791
15:31:48 3 990 129 8 W 0 96.6 790
15:34:48 3 990 127 8 NO 0 96.6 791
15:37:47 3 990 124 8 W 0 96.6 795
15:40:47 3 990 124 5 W 0 96.6 799
15:43:47 3 990 106 8 W 0 96.6 801
15:46:47 3 990 95 5 NW 0 96.6 800
15:49:46 3 990 72 4 W 0 96.6 795
15:52:49 3 991 52 7 W 0 96.6 788
15:55:45 3 991 58 6 W 0 96.6 797
15:58:46 3 991 74 7 W 0 96.6 795
16:01:47 3 991 60 3 NW 0 96.6 807
16:04:46 3 991 52 2 W 0 96.6 802
16:07:48 3 991 41 9 NW 0 96.6 799
16:10:48 3 991 40 9 W 0 96.6 782
16:13:46 3 991 36 4 W 0 96.6 785
16:16:46 3 991 29 7 N 0 96.6 794
16:19:46 3 991 23 6 W 0 96.6 793
16:22:47 3 991 13 6 NW 0 96.6 803
16:25:45 3 991 10 5 W 0 96.6 794
16:28:46 3 991 7 3 NW 0 96.6 800
16:31:47 3 991 6 1 SW 0 96.6 805
16:34:46 3 991 4 3 W 0 96.6 811
16:37:47 3 991 3 3 W 0 96.6 824
16:40:46 3 991 0 3 W 0 96.6 833
16:43:45 3 991 0 0 W 0 96.6 831
16:46:50 3 990 0 0 SO 0 96.6 834
16:49:49 3 991 0 2 W 0 96.6 837
16:52:45 3 991 0 3 W 0 96.6 835
16:55:46 3 991 0 4 N 0 96.6 835
16:58:46 3 991 0 11 W 0 96.6 829
17:01:48 3 991 0 5 NW 0 96.6 829
17:04:44 3 991 0 3 W 0 96.6 826
17:07:47 3 991 0 3 W 0 96.6 829
17:10:44 3 991 0 3 W 0 96.6 832
17:13:46 3 991 0 6 W 0 96.6 842
17:16:48 3 991 0 4 NW 0 96.6 846
17:19:46 3 991 0 3 SW 0 96.6 841
17:22:45 3 991 0 4 O 0 96.6 844
17:25:48 3 991 0 5 W 0 96.6 844
17:28:46 3 991 0 2 NW 0 96.6 842
17:31:47 3 991 0 5 NW 0 96.6 838
17:34:46 3 991 0 5 SW 0 96.6 834
17:37:44 3 991 0 4 W 0 96.6 844
17:40:45 3 991 0 5 W 0 96.6 843
17:43:47 3 991 0 1 NW 0 96.6 840
17:46:49 3 991 0 0 NW 0 96.6 831
17:49:44 3 991 0 2 S 0 96.6 818
17:52:44 3 991 0 2 W 0 96.6 820
17:55:45 3 991 0 2 W 0 96.6 815
17:58:45 3 991 0 1 S 0 96.6 821
18:01:48 2 991 0 3 SW 0 96.6 823
18:04:45 3 991 0 3 W 0 96.6 817
18:07:49 2 991 0 8 W 0 96.6 822
18:10:46 2 991 0 2 N 0 96.6 831
18:13:48 3 991 0 0 W 0 96.6 830
18:16:48 3 991 0 4 W 0 96.6 826
18:19:48 3 991 0 6 NW 0 96.6 831
18:22:46 2 991 0 4 W 0 96.6 834
18:25:47 2 991 0 0 SW 0 96.6 827
18:28:46 2 991 0 1 SW 0 96.6 817
18:31:48 2 991 0 2 NW 0 96.6 824
18:34:45 2 991 0 6 SW 0 96.6 822
18:37:45 2 991 0 3 W 0 96.6 821
18:40:47 2 991 0 3 SW 0 96.6 831
18:43:44 2 991 0 5 W 0 96.6 835
18:46:46 2 991 0 2 SW 0 96.6 825
18:49:46 2 991 0 4 NW 0 96.6 823
18:52:47 2 992 0 3 W 0 96.6 817
18:55:47 2 991 0 3 W 0 96.6 814
18:58:46 2 992 0 2 W 0 96.6 810
19:01:48 2 992 0 2 W 0 96.6 815
19:04:47 2 991 0 2 W 0 96.6 818
19:07:49 2 991 0 4 SW 0 96.6 814
19:10:46 2 991 0 4 W 0 96.6 811
19:13:44 2 991 0 1 W 0 96.6 816
19:16:49 2 992 0 2 W 0 96.6 822
19:19:46 2 991 0 3 W 0 96.6 820
19:22:49 2 991 0 1 NW 0 96.6 817
19:25:46 2 992 0 4 W 0 96.6 812
19:28:47 2 992 0 5 SW 0 96.6 811
19:31:46 2 991 0 2 W 0 96.6 813
19:34:46 2 991 0 5 O 0 96.6 822
19:37:46 2 991 0 4 SW 0 96.6 821
19:40:46 2 991 0 3 S 0 96.6 814
19:43:49 2 992 0 3 S 0 96.6 817
19:46:49 2 991 0 1 NW 0 96.6 819
19:49:50 2 992 0 5 NW 0 96.6 832
19:52:47 2 992 0 9 SW 0 96.6 846
19:55:48 2 992 0 2 S 0 96.6 841
19:58:47 2 991 0 5 W 0 96.6 836
20:01:47 2 992 0 3 NW 0 96.6 839
20:04:49 2 991 0 2 NW 0 96.6 838
20:07:46 2 992 0 5 W 0 96.6 831
20:10:49 2 992 0 2 S 0 96.6 820
20:13:45 2 992 0 3 W 0 96.6 822
20:16:47 2 992 0 4 W 0 96.6 818
20:19:46 2 991 0 3 SW 0 96.6 814
20:22:48 2 991 0 2 NW 0 96.6 829
20:25:48 2 992 0 4 SW 0 96.6 824
20:28:48 2 992 0 0 SO 0 96.6 824
20:31:48 2 992 0 5 W 0 96.6 823
20:34:54 2 992 0 4 SW 0 96.6 820
20:37:48 2 992 0 6 NW 0 96.6 826
20:40:48 2 992 0 3 NW 0 96.6 829
20:43:46 2 992 0 2 SW 0 96.6 831
20:46:46 2 992 0 4 SW 0 96.6 833
20:49:47 2 992 0 3 W 0 96.6 825
20:52:49 2 992 0 1 NW 0 96.6 708
20:55:47 2 992 0 4 SW 0 96.6 705
20:58:48 2 992 0 5 W 0 96.6 699
21:01:46 2 992 0 5 W 0 96.6 697
21:04:47 2 993 0 5 S 0 96.6 699
21:07:46 2 992 0 9 W 0 96.6 712
21:10:46 2 992 0 4 SW 0 96.6 715
21:13:47 2 992 0 1 W 0 96.6 714
21:16:46 2 992 0 5 SW 0 96.6 705
21:19:46 2 992 0 5 SW 0 96.6 698
21:22:46 2 992 0 6 W 0 96.6 703
21:25:45 2 992 0 5 W 0 96.6 714
21:28:45 2 991 0 7 W 0 96.6 705
21:31:46 2 992 0 6 SW 0 96.6 706
21:34:45 2 991 0 5 N 0 96.6 700
21:37:46 2 992 0 2 SW 0 96.6 706
21:40:48 2 992 0 3 W 0 96.6 711
21:43:48 2 992 0 4 SW 0 96.6 712
21:46:45 2 991 0 8 W 0 96.6 715
21:49:45 2 992 0 5 W 0 96.6 714
21:52:46 2 992 0 6 S 0 96.6 715
21:55:46 2 992 0 2 W 0 96.6 720
21:58:46 2 992 0 5 W 0 96.6 719
22:01:48 2 992 0 4 W 0 96.6 723
22:04:47 2 991 0 6 SW 0 96.6 718
22:07:46 2 992 0 5 W 0 96.6 719
22:10:46 2 993 0 3 W 0 96.6 721
22:13:47 2 993 0 3 NO 0 96.6 728
22:16:47 2 992 0 4 W 0 96.6 728
22:19:47 2 992 0 6 SW 0 96.6 728
22:22:48 2 992 0 9 SO 0 96.6 735
22:25:47 2 992 0 5 NW 0 96.6 729
22:28:46 2 992 0 7 W 0 96.6 725
22:31:46 2 992 0 6 W 0 96.6 723
22:34:46 2 992 0 2 W 0 96.6 728
22:37:46 2 992 0 4 W 0 96.6 720
22:40:47 2 992 0 7 NW 0 96.6 723
22:43:46 2 992 0 0 S 0 96.6 723
22:46:46 2 992 0 2 W 0 96.6 724
22:49:45 2 992 0 3 W 0 96.6 706
22:52:48 1 992 0 3 SW 0 96.6 709
22:55:45 1 992 0 4 W 0 96.6 702
22:58:48 1 992 0 2 W 0 96.6 700
23:01:45 1 992 0 0 S 0 96.6 695
23:04:49 1 992 0 0 SW 0 96.6 700
23:07:46 1 992 0 3 SW 0 96.6 695
23:10:46 1 992 0 1 SW 0 96.6 699
23:13:47 1 992 0 0 SW 0 96.6 694
23:16:45 1 992 0 3 O 0 96.6 697
23:19:49 1 993 0 1 SO 0 96.6 691
23:22:44 1 992 0 1 S 0 96.6 685
23:25:47 1 992 0 1 SW 0 96.6 682
23:28:48 1 992 0 0 SO 0 96.6 685
23:31:47 1 992 0 0 S 0 96.6 693
23:34:44 1 991 0 3 S 0 96.6 689
23:37:47 1 991 0 3 SW 0 96.6 695
23:40:45 1 991 0 2 O 0 96.6 700
23:43:49 1 992 0 1 SW 0 96.6 702
23:46:48 1 992 0 4 SW 0 96.6 694
23:49:47 1 992 0 2 O 0 96.6 688
23:52:47 1 991 0 1 SW 0 96.6 689
23:55:48 1 991 0 1 S 0 96.6 694
23:58:47 1 991 0 3 SW 0 96.6 694

Letzte Änderung : 22-Jul-2022
Copyright Jens Köhler, Wolfsburg, Obere Dorfstraße 10d